Regional Weather Roundup
Issued by NWS

Home | Current Version | Previous Version | Text Only | Print | Product List | Glossary Off
Versions: 1 2 3 4 5 6 7 8 9 10 11 12 13 14 15 16 17 18 19 20 21 22 23 24 25 26 27 28 29 30 31 32 33 34 35 36 37 38 39 40 41 42 43 44 45 46 47 48 49 50

235
ASUS45 KPSR 111310
RWRAZ

ARIZONA HOURLY REGIONAL WEATHER ROUNDUP
NATIONAL WEATHER SERVICE PHOENIX AZ
600 AM MST MON DEC 11 2017

NOTE: FAIR INDICATES FEW OR NO CLOUDS BELOW 12,000 FEET WITH NO
SIGNIFICANT WEATHER AND/OR OBSTRUCTIONS TO VISIBILITY.

AZZ001>003-036-111400-
NORTHWEST ARIZONA

CITY           SKY/WX    TMP DP  RH WIND       PRES   REMARKS
BULLHEAD CITY  MOCLDY    59   7  12 N24G32    30.28S
KINGMAN        MOCLDY    33  -3  21 N5        30.36S WCI  29
$$

AZZ004>008-015-016-018-111400-
NORTH CENTRAL ARIZONA

CITY           SKY/WX    TMP DP  RH WIND       PRES   REMARKS
GRAND CANYON   MOCLDY    33  -9  16 NE9       30.48S WCI  25
WILLIAMS       MOCLDY    21 -11  23 S10       30.43S WCI  10
PRESCOTT       CLOUDY    26  -2  29 S5        30.39S WCI  20
FLAGSTAFF      MOCLDY    14  -7  38 NE5       30.47R WCI   6
PAYSON         MOCLDY    46 -11   8 E5        30.37S
PAGE           CLOUDY    27  11  51 CALM      30.52S
$$

AZZ009>014-017-111400-
NORTHEAST ARIZONA

CITY           SKY/WX    TMP DP  RH WIND       PRES   REMARKS
WINSLOW        CLOUDY    10  -9  42 SW5       30.52R WCI   2
SAINT JOHNS    CLOUDY    14  -4  44 CALM      30.48R
WINDOW ROCK    MOCLDY     5 -12  45 NE3       30.50F
SHOW LOW       CLOUDY    19   0  42 CALM      30.48R
$$

AZZ540-542>544-546-548-111400-
GREATER PHOENIX AREA

CITY           SKY/WX    TMP DP  RH WIND       PRES   REMARKS
PHOENIX        CLOUDY    58  14  17 CALM      30.20S
BUCKEYE        CLOUDY    52   1  12 NW8       30.20S
GLENDALE       CLOUDY    52  14  22 CALM      30.23
LUKE AFB       CLOUDY    50  21  32 NW6       30.20S
DEER VALLEY    CLOUDY    54   1  11 CALM      30.21S
SCOTTSDALE     CLOUDY    57  14  18 W3        30.23R
MESA-FALCON    MOCLDY    61   9  12 NE13      30.21
MESA-GATEWAY   MOCLDY    50  18  27 CALM      30.22S
CHANDLER       CLEAR     54  21  28 N3        30.22
$$

AZZ539-553-111400-
SOUTHWEST MARICOPA COUNTY AND PINAL COUNTY

CITY           SKY/WX    TMP DP  RH WIND       PRES   REMARKS
CASA GRANDE    NOT AVBL
$$

AZZ503-504-507>509-111400-
SOUTHEAST ARIZONA

CITY           SKY/WX    TMP DP  RH WIND       PRES   REMARKS
TUCSON         CLOUDY    59  16  18 E12       30.25S
DAVIS-MONTHAN  CLOUDY    57  16  20 SE13      30.24R
RYAN FIELD     CLEAR     55  18  22 E8        30.25
NOGALES        CLOUDY    51  17  26 NE7       30.28R
SIERRA VISTA   CLOUDY    42  14  31 CALM      30.33S
DOUGLAS        CLOUDY    41  16  36 N8        30.33F
SAFFORD        MOCLDY    45   7  21 E15       30.35S
$$

AZZ532-111400-
SOUTHWEST ARIZONA

CITY           SKY/WX    TMP DP  RH WIND       PRES   REMARKS
YUMA           CLOUDY    59  14  17 N8        30.17R
$$

CAZ041-043-047-048-061-525>527-560>570-111400-
SOUTHERN CALIFORNIA

CITY           SKY/WX    TMP DP  RH WIND       PRES   REMARKS
DOWNTOWN L.A.  PTCLDY    61  13  15 NE3       30.14S
L.A. AIRPORT   PTCLDY    63  13  14 CALM      30.15S
SAN DIEGO      MOCLDY    56  30  37 N3        30.15S
BURBANK        PTCLDY    53  18  25 N3        30.16S
ONTARIO        MOCLDY    54  15  21 NW6       30.17S
RIVERSIDE      MOCLDY    56  16  20 NE7       30.17F
PALM SPRINGS   MOCLDY    64   9  11 W6        30.22S
EL CENTRO NAS  CLOUDY    52  15  23 W8        30.20R
IMPERIAL       CLOUDY    51  22  31 W8        30.18R
BLYTHE         CLOUDY    53  10  18 CALM      30.23R
NEEDLES        MOCLDY    58   6  12 N10       30.29R
$$

NVZ020-UTZ003-111400-
SOUTHERN NEVADA-UTAH

CITY           SKY/WX    TMP DP  RH WIND       PRES   REMARKS
LAS VEGAS      MOCLDY    42   3  19 SW3       30.37S
SALT LAKE CITY FOG       23  20  88 CALM      30.60S VSB 1/4
$$

NMZ009-TXZ055-111400-
NEW MEXICO-WEST TEXAS

CITY           SKY/WX    TMP DP  RH WIND       PRES   REMARKS
ALBUQUERQUE    CLOUDY    27   2  34 N6        30.46F WCI  20
EL PASO        MOCLDY    34  21  59 N7        30.41R WCI  28
$$


........................KEY........................
SKY/WX - SKY CONDITION/WEATHER
TMP    - TEMPERATURE IN FAHRENHEIT
DP     - DEW POINT IN FAHRENHEIT
RH     - RELATIVE HUMIDITY IN PERCENT
WIND   - DIRECTION AND SPEED IN MILES PER HOUR (MPH)
VRB    - VARIABLE WIND DIRECTION
PRES   - MEAN SEA LEVEL PRESSURE IN INCHES OF MERCURY
         F - FALLING PRESSURE   R - RISING PRESSURE
         S - STEADY PRESSURE
VSB    - VISIBILITY IN MILES
HX     - HEAT INDEX IN FAHRENHEIT
WCI    - WIND CHILL INDEX IN FAHRENHEIT
TC     - TEMPERATURE IN CELSIUS WHICH IS ALSO KNOWN AS
         TEMPERATURE IN CENTIGRADE
AFB    - AIR FORCE BASE
         LUKE AFB IS LUKE AIR FORCE BASE
         DAVIS-MONTHAN IS DAVIS-MONTHAN AIR FORCE BASE
NAS    - NAVAL AIR STATION
         EL CENTRO NAS IS EL CENTRO NAVAL AIR STATION
N/A    - NOT AVAILABLE





USA.gov is the U.S. government's official web portal to all federal, state and local government web resources and services.